Terminal Aerodrome Forecast
Issued by NWS Boston, MA

Home | Current Version | Previous Version | Text Only | Print | Product List | Glossary On
Versions: 1 2 3 4 5 6 7 8 9 10 11 12 13 14 15 16 17 18 19 20 21 22 23 24 25 26 27 28 29 30 31 32 33 34 35 36 37 38 39 40 41 42
000
FTUS41 KBOX 281301 AAA
TAFBDL
TAF AMD
KBDL 281301Z 2813/2918 20007KT P6SM FEW009 BKN015 BKN025
     FM281800 21010KT P6SM BKN050
     FM282000 23009KT P6SM VCTS BKN040CB
     FM290000 27008KT P6SM BKN050
     FM290700 27006KT P6SM SCT050=

USA.gov is the U.S. government's official web portal to all federal, state and local government web resources and services.